Chievres, Belgium

6:19 PM CET on December 15, 2017 (GMT +0100)
Chievres Air Base

Weather History for EBCV - January, 2013

Change the Weather History Date:

Wednesday, January 23, 2013

  Actual Average Record
Temperature  
Mean Temperature 23 °F -  
Max Temperature 28 °F 42 °F 48 °F (2003)
Min Temperature 18 °F 36 °F 18 °F (2013)
Degree Days  
Heating Degree Days 42    
Moisture  
Dew Point 23 °F    
Average Humidity 95    
Maximum Humidity 100    
Minimum Humidity 86    
Precipitation  
Precipitation 0.00 in - - ()
Sea Level Pressure  
Sea Level Pressure 29.77 in    
Wind  
Wind Speed 5 mph ()    
Max Wind Speed 8 mph    
Max Gust Speed -    
Visibility 0.7 miles    
Events Fog , Rain , Snow    
Averages and records for this station are not official NWS values.
T = Trace of Precipitation, MM = Missing Value Source: Averaged Metar Reports

Daily Weather History Graph

Daily Weather History Graph

Search for Another Location

Airport or City:

Trip Planner

Search our weather history database for the weather conditions in past years. The results will help you decide how hot, cold, wet, or windy it might be!

Date:

Astronomy

Jan. 23, 2013 Rise Set
Actual Time 8:31 AM CET 5:21 PM CET
Civil Twilight 7:55 AM CET 5:58 PM CET
Nautical Twilight 7:15 AM CET 6:38 PM CET
Astronomical Twilight 6:36 AM CET 7:17 PM CET
Moon 2:14 PM CET (1/23) 5:36 AM CET (1/23)
Length of Visible Light 10h 03m
Length of Day
8h 50m
Waxing Gibbous, 87% of the Moon is Illuminated
Jan 23
Waxing Gibbous
Jan 27
Full
Feb 3
Last Quarter
Feb 10
New
Feb 17
First Quarter

Hourly Weather History & Observations

Time (CET) Temp. Windchill Dew Point Humidity Pressure Visibility Wind Dir Wind Speed Gust Speed Precip Events Conditions
12:25 AM 23.0 °F 13.9 °F 21.2 °F 93% 29.71 in 0.7 mi East 8.1 mph - N/A   Clear
12:55 AM 21.2 °F 11.7 °F 19.4 °F 93% 29.71 in 0.6 mi East 8.1 mph - N/A Fog Light Freezing Fog
1:00 AM 22 °F - 20 °F 89% 29.73 in 1 mi East 6.7 mph - -   Mist
1:25 AM 21.2 °F 13.6 °F 19.4 °F 93% 29.71 in 0.7 mi East 5.8 mph - N/A   Partly Cloudy
1:46 AM 19.4 °F 11.5 °F 17.6 °F 93% 29.71 in 0.6 mi East 5.8 mph - N/A Fog Light Freezing Fog
2:03 AM 19.4 °F 12.8 °F 17.6 °F 93% 29.71 in 0.4 mi East 4.6 mph - N/A Fog Light Freezing Fog
2:25 AM 19.4 °F 10.4 °F 19.4 °F 100% 29.71 in 0.0 mi East 6.9 mph - N/A Fog Light Freezing Fog
3:25 AM 19.4 °F 12.8 °F 17.6 °F 93% 29.71 in 0.1 mi ENE 4.6 mph - N/A Fog Light Freezing Fog
4:00 AM 19 °F - 19 °F 99% 29.75 in 0 mi 2.2 mph - - Fog Fog
4:25 AM 19.4 °F 14.3 °F 17.6 °F 93% 29.74 in 0.0 mi Variable 3.5 mph - N/A Fog Light Freezing Fog
5:25 AM 21.2 °F 13.6 °F 19.4 °F 93% 29.71 in 0.1 mi NE 5.8 mph - N/A Fog Light Freezing Fog
6:25 AM 21.2 °F 16.4 °F 21.2 °F 100% 29.74 in 0.2 mi Variable 3.5 mph - N/A Fog Light Freezing Fog
7:00 AM 22 °F - 21 °F 94% 29.76 in 0 mi 2.2 mph - - Fog Fog
7:25 AM 21.2 °F 14.9 °F 21.2 °F 100% 29.74 in 0.2 mi NE 4.6 mph - N/A Fog Light Freezing Fog
8:25 AM 23.0 °F 15.8 °F 21.2 °F 93% 29.74 in 0.1 mi NE 5.8 mph - N/A Fog Light Freezing Fog
9:25 AM 23.0 °F - 23.0 °F 100% 29.77 in 0.1 mi Variable 2.3 mph - N/A Fog Light Freezing Fog
10:00 AM 22 °F - 22 °F 100% 29.80 in 0 mi 4.5 mph - - Fog Fog
10:25 AM 23.0 °F 15.8 °F 21.2 °F 93% 29.77 in 0.1 mi ENE 5.8 mph - N/A Fog Light Freezing Fog
11:25 AM 23.0 °F 18.4 °F 23.0 °F 100% 29.80 in 0.6 mi Variable 3.5 mph - N/A Fog Light Freezing Fog
11:37 AM 24.8 °F - 23.0 °F 93% 29.80 in 0.7 mi Variable 1.2 mph - N/A   Mostly Cloudy
12:02 PM 23.0 °F - 23.0 °F 100% 29.80 in 1.0 mi Variable 2.3 mph - N/A   Scattered Clouds
12:20 PM 23.0 °F - 21.2 °F 93% 29.80 in 0.9 mi Variable 2.3 mph - N/A   Scattered Clouds
12:25 PM 23.0 °F - 21.2 °F 93% 29.80 in 0.9 mi Variable 2.3 mph - N/A   Partly Cloudy
12:40 PM 24.8 °F 20.5 °F 24.8 °F 100% 29.77 in 1.0 mi Variable 3.5 mph - N/A   Mostly Cloudy
1:00 PM 25 °F - 25 °F 100% 29.81 in 1 mi 2.2 mph - -   Mist
1:25 PM 24.8 °F 20.5 °F 21.2 °F 86% 29.77 in 1.1 mi Variable 3.5 mph - N/A   Mostly Cloudy
1:38 PM 24.8 °F 20.5 °F 23.0 °F 93% 29.77 in 0.9 mi Variable 3.5 mph - N/A   Scattered Clouds
2:25 PM 26.6 °F 22.6 °F 24.8 °F 93% 29.77 in 0.9 mi Variable 3.5 mph - N/A   Mostly Cloudy
2:32 PM 26.6 °F 21.2 °F 24.8 °F 93% 29.77 in 1.0 mi NNE 4.6 mph - N/A   Mostly Cloudy
2:53 PM 26.6 °F 21.2 °F 24.8 °F 93% 29.77 in 0.7 mi NNE 4.6 mph - N/A   Mostly Cloudy
3:25 PM 26.6 °F 20.0 °F 26.6 °F 100% 29.77 in 0.7 mi NE 5.8 mph - N/A   Mostly Cloudy
4:00 PM 27 °F - 26 °F 97% 29.81 in 1 mi 4.5 mph - -   Mist
4:25 PM 26.6 °F 21.2 °F 24.8 °F 93% 29.80 in 0.7 mi NNE 4.6 mph - N/A   Mostly Cloudy
5:25 PM 26.6 °F 21.2 °F 26.6 °F 100% 29.80 in 0.7 mi NE 4.6 mph - N/A   Overcast
6:12 PM 26.6 °F 20.0 °F 26.6 °F 100% 29.80 in 1.0 mi NE 5.8 mph - N/A   Overcast
6:18 PM 26.6 °F 21.2 °F 26.6 °F 100% 29.80 in 0.9 mi NE 4.6 mph - N/A   Overcast
6:25 PM 26.6 °F 21.2 °F 26.6 °F 100% 29.80 in 0.9 mi NE 4.6 mph - N/A   Mostly Cloudy
6:32 PM 28.4 °F 24.6 °F 26.6 °F 93% 29.80 in 1.0 mi Variable 3.5 mph - N/A   Mostly Cloudy
6:46 PM 28.4 °F 23.3 °F 26.6 °F 93% 29.77 in 1.1 mi NE 4.6 mph - N/A Snow Light Snow
6:58 PM 26.6 °F 22.6 °F 26.6 °F 100% 29.77 in 0.9 mi Variable 3.5 mph - N/A   Overcast
7:00 PM 28 °F - 26 °F 90% 29.81 in 1 mi NE 4.5 mph - - Rain Light Freezing Rain
7:04 PM 28.4 °F 24.6 °F 26.6 °F 93% 29.80 in 1.0 mi Variable 3.5 mph - N/A   Mostly Cloudy
7:25 PM 28.4 °F 22.2 °F 26.6 °F 93% 29.80 in 1.3 mi ENE 5.8 mph - N/A   Overcast
8:25 PM 28.4 °F 21.2 °F 26.6 °F 93% 29.80 in 1.4 mi East 6.9 mph - N/A   Overcast
8:29 PM 28.4 °F 21.2 °F 26.6 °F 93% 29.80 in 1.3 mi East 6.9 mph - N/A Snow Light Snow
9:25 PM 26.6 °F 20.0 °F 24.8 °F 93% 29.80 in 1.2 mi East 5.8 mph - N/A   Mostly Cloudy
10:00 PM 26 °F - 24 °F 88% 29.83 in 1 mi East 6.7 mph - -   Mist
10:25 PM 26.6 °F 20.0 °F 24.8 °F 93% 29.80 in 1.3 mi East 5.8 mph - N/A   Mostly Cloudy
11:25 PM 26.6 °F 20.0 °F 23.0 °F 86% 29.80 in 1.3 mi ENE 5.8 mph - N/A   Mostly Cloudy